Flag Weather past 2 weeks in Luanda, Angola

Now
86 °F

Partly sunny.


Feels Like: 91 °F
Forecast: 78 / 83 °F
Wind: 9 mph from West

Location: Luanda Airport

Current Time: Nov 26, 2014 at 3:29:53 PM

Latest Report: Nov 26, 2014 at 3:00 PM


Visibility: N/A

Pressure: 29.80 "Hg

Humidity: 59%

Dew point: 70 °F

Location of LuandaLocation

Historic Weather in Luanda — Graph

°F

Luanda temperature yesterday

Maximum temperature yesterday: 86 °F (at 12:00 PM)
Minimum temperature yesterday: 75 °F (at 6:00 AM)
Average temperature yesterday: 80 °F

Past Weeks' High & Low Weather Summary

 TemperatureHumidityPressure
High88 °F (Nov 14, 12:00 PM)94% (Nov 19, 1:00 AM)29.98 "Hg (Nov 19, 1:00 AM)
Low63 °F (Nov 19, 1:00 PM)55% (Nov 14, 12:00 PM)29.71 "Hg (Nov 17, 5:00 PM)
Average80 °F76%29.87 "Hg
* Reported Nov 11 2:00 PM — Nov 26 2:00 PM, Luanda, Weather by CustomWeather, © 2014

Note: Actual official high and low records may vary slightly from our data, if they occured in-between our weather recording intervals... More about our weather records

Advertising

Luanda weather history for previous 24 hours

 ConditionsComfort  
Time TempWeatherWind HumidityBarometerVisibility
2:00 PM
Nov 26
86 °FPartly sunny.9 mph59%29.83 "HgN/A
1:00 PM84 °FBroken clouds.8 mph66%29.86 "HgN/A
12:00 PM86 °FBroken clouds.7 mph62%29.86 "HgN/A
11:00 AM82 °FBroken clouds.5 mph70%29.89 "HgN/A
10:00 AM84 °FBroken clouds.No wind66%29.92 "HgN/A
9:00 AM81 °FBroken clouds.2 mph74%29.92 "HgN/A
8:00 AM81 °FBroken clouds.2 mph74%29.92 "HgN/A
7:00 AM77 °FBroken clouds.5 mph83%29.92 "HgN/A
6:00 AM77 °FBroken clouds.5 mph83%29.89 "HgN/A
5:00 AM77 °FPassing clouds.7 mph83%29.89 "HgN/A
4:00 AM77 °FPassing clouds.6 mph83%29.89 "HgN/A
3:00 AM77 °FPassing clouds.6 mph83%29.86 "HgN/A
2:00 AM77 °FPassing clouds.6 mph83%29.86 "HgN/A
1:00 AM79 °FPassing clouds.5 mph79%29.89 "HgN/A
12:00 AM79 °FPassing clouds.3 mph79%29.89 "HgN/A
11:00 PM
Nov 25
79 °FPartly cloudy.7 mph79%29.92 "HgN/A
10:00 PM79 °FPassing clouds.9 mph79%29.92 "HgN/A
9:00 PM79 °FPassing clouds.8 mph79%29.89 "HgN/A
8:00 PM79 °FPassing clouds.8 mph79%29.89 "HgN/A
7:00 PM79 °FPassing clouds.8 mph79%29.86 "HgN/A
6:00 PM79 °FPartly sunny.9 mph79%29.83 "HgN/A
5:00 PM81 °FPartly sunny.12 mph74%29.80 "HgN/A
4:00 PM82 °FBroken clouds.12 mph70%29.80 "HgN/A
Weather by CustomWeather, © 2014

See weather overviewHow to use our weather pages